Location: Waco, TX
(31.5480°N, 97.1670°W)
Time: 21:56:45
(UTC-06:00)

ISS - Pass Details

Date: 15 February 2019
Orbit: 403 x 411 km, 51.6° (Epoch: 22 February)

Event Time Altitude Azimuth Distance (km) Brightness Sun altitude
Rises 09:14:47 0° 232° (SW) 2,302 -0.2 23.4°
Reaches altitude 10° 09:16:52 10° 236° (SW) 1,447 -1.2 23.8°
Maximum altitude 09:20:04 58° 316° (NW) 471 -3.5 24.4°
Drops below altitude 10° 09:23:18 10° 37° (NE) 1,455 -0.9 24.9°
Sets 09:25:24 0° 41° (NE) 2,318 0.1 25.3°
